"2010-01-22 00:00:00",1613080,2.793,9.75,6.432,1.265,3.93,100.2723,-0.005,1.233,33.88,0,109.6,13.59,0.75,331.8
"2010-01-22 00:00:30",1613081,1.957,7.662,5.682,1.064,2.917,100.2715,-0.007,1.23,33.64,0,109.6,13.59,0.74,329.7
"2010-01-22 00:01:00",1613082,1.458,6.63,4.956,0.753,2.646,100.2717,-0.007,1.27,33.9,0,109.6,13.59,0.75,328.6
"2010-01-22 00:01:30",1613083,1.728,11.23,6.336,1.208,2.728,100.2717,-0.007,1.137,33.92,0,109.6,13.6,0.75,333.2
"2010-01-22 00:02:00",1613084,1.985,15.61,7.879,1.275,3.982,100.2717,-0.007,1.292,34.18,0,109.6,13.6,0.75,337.6
"2010-01-22 00:02:30",1613085,1.158,11.87,5.154,0.803,1.684,100.2717,-0.007,1.187,33.99,0,109.5,13.6,0.75,333.9
"2010-01-22 00:03:00",1613086,1.87,16.75,6.955,1.211,2.121,100.2717,-0.007,1.061,33.65,0,109.6,13.6,0.75,338.8
"2010-01-22 00:03:30",1613087,2.278,19.32,7.643,1.315,2.936,100.2717,-0.007,1.216,33.5,0,109.6,13.6,0.75,341.3
"2010-01-22 00:04:00",1613088,2.364,19.03,7.165,1.253,3.907,100.2689,-0.014,1.29,33.34,0,109.6,13.6,0.74,341.0
"2010-01-22 00:04:30",1613089,2.86,21.01,6.316,1.155,4.664,100.2621,-0.031,1.184,33.12,0,109.6,13.6,0.72,343.0
"2010-01-22 00:05:00",1613090,2.133,19.81,6.024,1.166,2.28,100.2567,-0.045,1.127,33.01,0,109.6,13.6,0.71,341.8
"2010-01-22 00:05:30",1613091,2.884,23.17,6.511,1.204,3.465,100.2494,-0.064,1.147,32.93,0,109.6,13.6,0.69,345.2
"2010-01-22 00:06:00",1613092,1.481,14.32,4.944,0.853,1.858,100.242,-0.083,1.142,32.91,0,109.6,13.6,0.67,336.3
"2010-01-22 00:06:30",1613093,0.994,9.65,3.819,0.13,0.77,100.2378,-0.093,0.993,32.76,0,109.6,13.64,0.66,331.6
"2010-01-22 00:07:00",1613094,1.865,10.53,7.385,1.237,3.084,100.2378,-0.093,1.142,32.9,0,109.6,13.6,0.66,332.5
"2010-01-22 00:07:30",1613095,2.505,15.79,7.599,1.144,4.851,100.2378,-0.093,1.253,33,0,109.6,13.6,0.66,337.8
"2010-01-22 00:08:00",1613096,3.247,17.54,5.559,0.502,5.538,100.2378,-0.093,1.198,32.98,0,109.6,13.6,0.66,339.5
"2010-01-22 00:08:30",1613097,1.618,14.03,8.45,1.151,2.609,100.2378,-0.093,1.105,32.94,0,109.6,13.6,0.66,336.0
"2010-01-22 00:09:00",1613098,2.01,18.83,6.793,1.18,2.422,100.2378,-0.093,1.146,32.99,0,109.6,13.6,0.66,340.8
"2010-01-22 00:09:30",1613099,1.699,16.2,4.255,0.842,0.692,100.2378,-0.093,0.975,32.84,0,109.6,13.6,0.66,338.2
"2010-01-22 00:10:00",1613100,1.514,15.83,2.485,0.182,0.565,100.2355,-0.099,0.961,32.85,0,109.6,13.63,0.65,337.8
"2010-01-22 00:10:30",1613101,2.401,20.24,6.052,1.146,1.983,100.2284,-0.117,0.986,32.88,0,109.6,13.6,0.63,342.2
"2010-01-22 00:11:00",1613102,3.717,26.78,6.227,0.943,5.412,100.2222,-0.133,1.181,32.98,0,109.6,13.6,0.62,348.8
"2010-01-22 00:11:30",1613103,3.856,27.01,5.589,0.845,5.099,100.2151,-0.151,1.214,32.94,0,109.6,13.6,0.60,349.0
"2010-01-22 00:12:00",1613104,3.108,24.98,5.846,1.183,3.39,100.2061,-0.174,1.119,32.83,0,109.6,13.6,0.58,347.0
"2010-01-22 00:12:30",1613105,2.859,22.89,6.531,1.169,2.541,100.2041,-0.179,1.07,32.76,0,109.6,13.6,0.57,344.9
"2010-01-22 00:13:00",1613106,1.541,15.82,2.32,0.136,0.613,100.2038,-0.18,0.925,32.61,0,109.6,13.63,0.57,337.8
"2010-01-22 00:13:30",1613107,2.225,19.4,6.129,1.17,2.835,100.2038,-0.18,1.082,32.74,0,109.6,13.6,0.57,341.4
"2010-01-22 00:14:00",1613108,2.442,18.97,6.793,1.238,2.792,100.2038,-0.18,0.978,32.71,0,109.6,13.6,0.57,341.0
"2010-01-22 00:14:30",1613109,3.317,25.39,5.878,1.21,4.988,100.2038,-0.18,1.172,32.96,0,109.6,13.61,0.57,347.4
"2010-01-22 00:15:00",1613110,3.83,26.14,5.397,0.945,5.431,100.2038,-0.18,1.192,33.08,0,109.6,13.61,0.57,348.1
"2010-01-22 00:15:30",1613111,3.049,22.03,6.465,1.229,3.455,100.2038,-0.18,1.078,33.03,0,109.6,13.6,0.57,344.0
"2010-01-22 00:16:00",1613112,1.785,13.02,2.197,0.146,0.712,100.2032,-0.181,0.907,32.89,0,109.6,13.64,0.57,335.0
"2010-01-22 00:16:30",1613113,3.189,19.48,5.544,1.274,3.172,100.1993,-0.192,1.014,32.87,0,109.6,13.61,0.56,341.5
"2010-01-22 00:17:00",1613114,3.42,19.64,6.016,1.256,2.868,100.1899,-0.215,1.044,32.77,0,109.6,13.61,0.54,341.6
"2010-01-22 00:17:30",1613115,4.503,28.62,4.246,0.738,5.815,100.1826,-0.234,1.191,32.9,0,109.6,13.61,0.52,350.6
"2010-01-22 00:18:00",1613116,4.667,30.4,3.635,0.536,5.61,100.1744,-0.255,1.195,32.88,0,109.6,13.6,0.50,352.4
"2010-01-22 00:18:30",1613117,3.448,24,6.819,1.235,2.832,100.171,-0.264,1.003,32.69,0,109.6,13.6,0.49,346.0
"2010-01-22 00:19:00",1613118,2.302,19.06,1.357,0.11,0.787,100.1704,-0.265,0.892,32.61,0,109.6,13.63,0.49,341.1
"2010-01-22 00:19:30",1613119,3.187,23.19,5.939,1.115,2.514,100.1698,-0.267,1.022,32.8,0,109.6,13.6,0.48,345.2
"2010-01-22 00:20:00",1613120,3.741,27.82,6.956,1.219,3.641,100.1701,-0.266,1.026,32.75,0,109.6,13.6,0.49,349.8
"2010-01-22 00:20:30",1613121,4.274,31.57,5.747,1.13,4.959,100.1721,-0.261,1.096,32.78,0,109.6,13.6,0.49,353.6
"2010-01-22 00:21:00",1613122,4.942,33.54,3.672,0.648,5.658,100.1718,-0.262,1.169,32.9,0,109.6,13.6,0.49,355.5
"2010-01-22 00:21:30",1613123,4.454,32.42,5.702,1.188,4.098,100.1704,-0.265,1.085,32.99,0,109.6,13.6,0.49,354.4
"2010-01-22 00:22:00",1613124,3.368,23.71,4.976,0.904,1.582,100.1735,-0.257,0.846,32.91,0,109.6,13.6,0.49,345.7
"2010-01-22 00:22:30",1613125,3.196,21.13,3.647,0.756,1.239,100.1738,-0.256,0.948,33.17,0,109.6,13.6,0.49,343.1
"2010-01-22 00:23:00",1613126,4.575,29.5,6.025,1.186,4.764,100.1752,-0.253,1.109,33.44,0,109.6,13.6,0.50,351.5
"2010-01-22 00:23:30",1613127,4.93,32.47,4.544,0.79,5.69,100.1747,-0.254,1.103,33.52,0,109.6,13.61,0.50,354.5
"2010-01-22 00:24:00",1613128,4.473,30.94,5.752,1.124,4.528,100.1764,-0.25,1.122,33.47,0,109.6,13.61,0.50,352.9
"2010-01-22 00:24:30",1613129,4.479,29.13,6.072,1.139,4.255,100.1744,-0.255,1.085,33.41,0,109.6,13.61,0.50,351.1
"2010-01-22 00:25:00",1613130,3.095,22.46,3.377,0.868,1.095,100.1778,-0.246,0.931,33.28,0,109.6,13.61,0.50,344.5
"2010-01-22 00:25:30",1613131,4.195,30,5.811,1.256,3.89,100.1772,-0.248,0.994,33.37,0,109.6,13.61,0.50,352.0
"2010-01-22 00:26:00",1613132,4.158,31.46,6.339,1.154,4.168,100.1795,-0.242,1.053,33.44,0,109.6,13.61,0.51,353.5
"2010-01-22 00:26:30",1613133,4.307,31.88,6.244,1.098,4.78,100.1806,-0.239,1.102,33.37,0,109.5,13.61,0.51,353.9
"2010-01-22 00:27:00",1613134,4.443,31.42,5.974,1.091,4.557,100.1826,-0.234,1.055,33.34,0,109.6,13.61,0.52,353.4
"2010-01-22 00:27:30",1613135,3.898,28.96,6.494,1.201,3.262,100.1803,-0.24,1.027,33.41,0,109.6,13.61,0.51,351.0
"2010-01-22 00:28:00",1613136,2.717,24.91,3.843,0.552,1.871,100.1812,-0.238,1.053,33.44,0,109.6,13.61,0.51,346.9
"2010-01-22 00:28:30",1613137,4.381,33.19,5.58,0.979,4.529,100.184,-0.23,1.013,33.23,0,109.6,13.61,0.52,355.2
"2010-01-22 00:29:00",1613138,4.301,32.47,5.75,1.147,4.831,100.1866,-0.224,1.074,33.19,0,109.6,13.61,0.53,354.5
"2010-01-22 00:29:30",1613139,4.352,31.48,5.644,1.121,4.489,100.1832,-0.233,1.085,33.21,0,109.6,13.61,0.52,353.5
"2010-01-22 00:30:00",1613140,4.453,30.95,5.8,1.072,4.19,100.188,-0.22,1.011,33.2,0,109.6,13.61,0.53,353.0
"2010-01-22 00:30:30",1613141,4.29,31.72,6.249,1.078,4.136,100.1871,-0.222,0.979,33.21,0,109.6,13.61,0.53,353.7
"2010-01-22 00:31:00",1613142,3.385,28.49,6.275,1.251,2.408,100.1871,-0.222,0.857,33,0,109.6,13.61,0.53,350.5
"2010-01-22 00:31:30",1613143,3.918,31.32,6.241,1.21,3.874,100.188,-0.22,1.017,33.06,0,109.6,13.61,0.53,353.3
"2010-01-22 00:32:00",1613144,3.984,31.89,6.45,1.184,4.079,100.1894,-0.217,1.07,33.18,0,109.6,13.61,0.53,353.9
"2010-01-22 00:32:30",1613145,3.792,32.75,6.409,1.228,3.997,100.1891,-0.217,1.091,33.22,0,109.6,13.61,0.53,354.8
"2010-01-22 00:33:00",1613146,3.79,35.59,6.288,1.151,3.507,100.19,-0.215,0.944,33.07,0,109.6,13.61,0.54,357.6
"2010-01-22 00:33:30",1613147,3.298,34.28,6.662,1.27,3.424,100.1925,-0.209,1.09,33.08,0,109.5,13.61,0.54,356.3
"2010-01-22 00:34:00",1613148,3.178,33.78,5.69,1.179,3.235,100.1911,-0.212,0.946,32.78,0,109.6,13.61,0.54,355.8
"2010-01-22 00:34:30",1613149,3.934,36.82,5.867,1.053,4.953,100.1968,-0.198,1.096,32.87,0,109.6,13.61,0.55,358.8
"2010-01-22 00:35:00",1613150,4.112,34.51,5.503,1.17,4.782,100.2013,-0.186,1.064,32.88,0,109.6,13.61,0.57,356.5
"2010-01-22 00:35:30",1613151,4.694,33.4,4.278,0.973,4.674,100.2089,-0.167,1.081,32.96,0,109.6,13.61,0.58,355.4
"2010-01-22 00:36:00",1613152,2.894,28.12,5.677,0.965,2.196,100.2155,-0.15,1.021,32.99,0,109.6,13.61,0.60,350.1
"2010-01-22 00:36:30",1613153,3.019,28.82,6.317,1.084,2.327,100.2225,-0.132,0.991,32.91,0,109.6,13.61,0.62,350.8
"2010-01-22 00:37:00",1613154,3.664,29.89,6.152,1.21,3.565,100.2282,-0.118,1.078,33.02,0,109.6,13.61,0.63,351.9
"2010-01-22 00:37:30",1613155,4.349,33.47,6.072,0.957,4.898,100.2293,-0.115,1.106,33.13,0,109.6,13.61,0.64,355.5
"2010-01-22 00:38:00",1613156,3.663,33.44,6.812,1.231,4.089,100.229,-0.116,1.086,33.09,0,109.6,13.61,0.64,355.4
"2010-01-22 00:38:30",1613157,3.57,36.02,6.491,1.149,4.303,100.2293,-0.115,1.064,33.1,0,109.6,13.61,0.64,358.0
"2010-01-22 00:39:00",1613158,2.542,32.2,5.685,0.977,2.036,100.229,-0.116,1.029,34.03,0,109.5,13.61,0.64,354.2
"2010-01-22 00:39:30",1613159,3.941,38.5,6.153,1.218,3.748,100.229,-0.116,1.067,35.35,0,109.6,13.61,0.64,0.5
"2010-01-22 00:40:00",1613160,3.086,34.54,5.748,1.242,2.543,100.2296,-0.114,0.979,34.79,0,109.6,13.61,0.64,356.5
"2010-01-22 00:40:30",1613161,5.011,45.03,5.384,0.788,5.594,100.2293,-0.115,1.155,35.11,0,109.6,13.61,0.64,7.0
"2010-01-22 00:41:00",1613162,4.537,49.22,6.563,1.128,5.118,100.2296,-0.114,1.173,37.84,0,109.6,13.61,0.64,11.2
"2010-01-22 00:41:30",1613163,3.663,42.42,6.913,1.208,3.475,100.2336,-0.104,1.014,40.82,0,109.6,13.61,0.65,4.4
"2010-01-22 00:42:00",1613164,3.023,37.39,6.304,1.254,3.104,100.2455,-0.074,1.085,41.42,0,109.6,13.61,0.68,359.4
"2010-01-22 00:42:30",1613165,3.376,41.2,4.905,1.127,2.661,100.2526,-0.056,0.974,41.62,0,109.6,13.61,0.70,3.2
"2010-01-22 00:43:00",1613166,3.704,43.36,6.424,1.156,4.636,100.2605,-0.035,1.178,42.41,0,109.6,13.61,0.72,5.4
"2010-01-22 00:43:30",1613167,3.97,42.03,7.289,1.071,5.508,100.2633,-0.028,1.2,41.87,0,109.6,13.62,0.72,4.0
"2010-01-22 00:44:00",1613168,3.446,40.98,5.776,1.147,4.832,100.2636,-0.028,1.194,41.23,0,109.6,13.61,0.72,3.0
"2010-01-22 00:44:30",1613169,2.17,32.56,5.115,0.896,2.505,100.2644,-0.025,1.123,40.43,0,109.6,13.62,0.73,354.6
"2010-01-22 00:45:00",1613170,2.753,34.54,5.846,1.197,2.463,100.2639,-0.027,1.018,40.04,0,109.6,13.62,0.73,356.5
"2010-01-22 00:45:30",1613171,2.156,31.77,3.352,0.749,1.192,100.2639,-0.027,1.05,40.28,0,109.5,13.62,0.73,353.8
"2010-01-22 00:46:00",1613172,2.736,35.88,6.043,1.138,3.121,100.2639,-0.027,1.162,41.12,0,109.6,13.62,0.73,357.9
"2010-01-22 00:46:30",1613173,3.696,39.07,6.074,1.001,5.157,100.2644,-0.025,1.284,41.7,0,109.6,13.62,0.73,1.1
"2010-01-22 00:47:00",1613174,3.605,37.85,5.303,1.022,5.117,100.2661,-0.021,1.244,41.76,0,109.6,13.62,0.73,359.9
"2010-01-22 00:47:30",1613175,2.77,34.25,6.406,1.184,3.249,100.2701,-0.011,1.262,41.02,0,109.6,13.62,0.74,356.2
"2010-01-22 00:48:00",1613176,2.807,34.99,5.044,1.117,2.243,100.2758,0.004,1.07,41.02,0,109.6,13.62,0.76,357.0
"2010-01-22 00:48:30",1613177,2.472,36.51,4.358,0.816,1.707,100.2806,0.016,1.132,41.88,0,109.6,13.62,0.77,358.5
"2010-01-22 00:49:00",1613178,3.191,42.77,5.762,1.169,2.42,100.2846,0.026,1.029,43.28,0,109.6,13.62,0.78,4.8
"2010-01-22 00:49:30",1613179,4.458,51.66,5.271,0.778,5.754,100.2843,0.025,1.312,45.28,0,109.6,13.62,0.78,13.7
"2010-01-22 00:50:00",1613180,3.872,48.8,6.385,1.121,5.004,100.2922,0.045,1.297,46.6,0,109.6,13.62,0.80,10.8
"2010-01-22 00:50:30",1613181,3.397,44.93,6.341,1.234,3.574,100.2953,0.053,1.187,46.91,0,109.6,13.62,0.81,6.9
"2010-01-22 00:51:00",1613182,3.044,45.06,6.297,1.157,3.199,100.2979,0.06,1.209,47.09,0,109.6,13.62,0.81,7.1
"2010-01-22 00:51:30",1613183,2.118,39.27,1.747,0.055,1.056,100.301,0.068,1.057,47.33,0,109.6,13.65,0.82,1.3
"2010-01-22 00:52:00",1613184,2.275,38.27,4.788,0.75,2.154,100.3001,0.066,1.195,47.8,0,109.6,13.62,0.82,0.3
"2010-01-22 00:52:30",1613185,4.224,47.2,4.507,0.772,5.929,100.2998,0.065,1.27,47.7,0,109.5,13.62,0.82,9.2
"2010-01-22 00:53:00",1613186,4.081,46.88,5.973,0.769,6.008,100.3001,0.066,1.308,47.68,0,109.6,13.62,0.82,8.9
"2010-01-22 00:53:30",1613187,3.26,45.28,6.78,1.25,4.201,100.299,0.063,1.325,47.89,0,109.6,13.62,0.82,7.3
"2010-01-22 00:54:00",1613188,2.428,38.29,8.33,1.249,2.104,100.3035,0.074,1.148,47.91,0,109.6,13.62,0.83,0.3
"2010-01-22 00:54:30",1613189,2.724,40.51,5.533,1.115,2.919,100.3024,0.071,1.149,47.92,0,109.6,13.62,0.82,2.5
"2010-01-22 00:55:00",1613190,1.719,34.97,4.864,0.26,1.027,100.3032,0.074,1.081,47.99,0,109.6,13.65,0.83,357.0
"2010-01-22 00:55:30",1613191,2.207,34.73,6.351,1.036,3.008,100.3013,0.069,1.288,47.13,0,109.6,13.63,0.82,356.7
"2010-01-22 00:56:00",1613192,3.814,43.85,3.37,0.843,5.897,100.2998,0.065,1.406,45.86,0,109.6,13.63,0.82,5.8
"2010-01-22 00:56:30",1613193,3.868,46.04,6.891,0.924,5.318,100.3013,0.069,1.291,45.83,0,109.6,13.63,0.82,8.0
"2010-01-22 00:57:00",1613194,3.404,42.94,7.234,1.216,4.488,100.3013,0.069,1.291,46.28,0,109.6,13.62,0.82,4.9
"2010-01-22 00:57:30",1613195,1.688,32.64,2.586,0.297,0.97,100.303,0.073,1.144,46,0,109.5,13.63,0.83,354.6
"2010-01-22 00:58:00",1613196,1.638,30.8,3.854,0.241,0.795,100.3044,0.077,1.095,45.93,0,109.6,13.66,0.83,352.8
"2010-01-22 00:58:30",1613197,2.665,33.69,6.276,1.203,3.226,100.3044,0.077,1.164,44.91,0,109.6,13.63,0.83,355.7
"2010-01-22 00:59:00",1613198,3.373,36.34,6.199,1.036,5.068,100.303,0.073,1.321,44.09,0,109.6,13.63,0.83,358.3
"2010-01-22 00:59:30",1613199,3.606,37.03,5.47,0.925,5.478,100.303,0.073,1.362,43.87,0,109.5,13.63,0.83,359.0
"2010-01-22 01:00:00",1613200,3.411,38.24,7.103,1.187,5.022,100.3015,0.069,1.301,44.17,0,109.6,13.63,0.82,0.2
"2010-01-22 01:00:30",1613201,2.153,31.67,5.76,1.017,1.779,100.3044,0.077,1.194,44.78,0,109.5,13.63,0.83,353.7
"2010-01-22 01:01:00",1613202,1.712,29.19,3.37,0.458,0.844,100.305,0.078,1.095,44.56,0,109.6,13.63,0.83,351.2
"2010-01-22 01:01:30",1613203,1.484,30.44,2.086,0.207,0.839,100.3055,0.079,1.079,44.99,0,109.6,13.66,0.83,352.4
"2010-01-22 01:02:00",1613204,2.353,34.64,5.707,1.191,3.379,100.3047,0.077,1.27,45.66,0,109.5,13.63,0.83,356.6
"2010-01-22 01:02:30",1613205,3.349,36.01,6.001,1.061,5.155,100.3044,0.077,1.314,46.57,0,109.6,13.63,0.83,358.0
"2010-01-22 01:03:00",1613206,3.265,36.55,7.281,1.02,5.299,100.3038,0.075,1.415,45.43,0,109.6,13.63,0.83,358.5
"2010-01-22 01:03:30",1613207,2.533,35.56,7.035,1.277,3.611,100.3032,0.074,1.264,44.51,0,109.6,13.63,0.83,357.6
"2010-01-22 01:04:00",1613208,1.42,28.1,3.5,0.139,1.137,100.3055,0.079,1.183,45.44,0,109.6,13.66,0.83,350.1
"2010-01-22 01:04:30",1613209,1.468,27.84,2.218,0.153,0.643,100.3055,0.079,1.099,44.99,0,109.6,13.66,0.83,349.8
"2010-01-22 01:05:00",1613210,2.291,34.74,6.91,1.148,2.357,100.305,0.078,1.109,45.14,0,109.6,13.63,0.83,356.7
"2010-01-22 01:05:30",1613211,2.579,34.54,6.68,1.192,3.886,100.305,0.078,1.264,46.1,0,109.6,13.63,0.83,356.5
"2010-01-22 01:06:00",1613212,3.279,40.19,4.516,0.77,5.601,100.3038,0.075,1.358,45.63,0,109.6,13.63,0.83,2.2
"2010-01-22 01:06:30",1613213,3,42.58,5.472,1.13,4.837,100.3047,0.077,1.358,46.15,0,109.6,13.63,0.83,4.6
"2010-01-22 01:07:00",1613214,3.024,43.21,6.253,1.16,4.077,100.3055,0.079,1.286,47.15,0,109.6,13.62,0.83,5.2
"2010-01-22 01:07:30",1613215,1.298,35.23,2.347,0.1,0.59,100.3058,0.08,1.105,47.56,0,109.6,13.65,0.83,357.2
"2010-01-22 01:08:00",1613216,1.364,39.4,1.57,0.053,0.548,100.3052,0.079,1.112,47.5,0,109.6,13.65,0.83,1.4
"2010-01-22 01:08:30",1613217,2.36,47.19,6.163,1.214,2.85,100.3052,0.079,1.151,47.56,0,109.6,13.63,0.83,9.2
"2010-01-22 01:09:00",1613218,2.544,50.05,6.87,1.194,4.202,100.3058,0.08,1.294,47.92,0,109.6,13.63,0.83,12.0
"2010-01-22 01:09:30",1613219,3.056,52.18,5.641,1.094,5.11,100.3041,0.076,1.373,48.2,0,109.6,13.63,0.83,14.2
"2010-01-22 01:10:00",1613220,3.127,52.4,5.492,1.069,5.278,100.305,0.078,1.34,48.18,0,109.6,13.63,0.83,14.4
"2010-01-22 01:10:30",1613221,2.367,50.03,6.647,1.235,3.695,100.305,0.078,1.291,47.71,0,109.6,13.62,0.83,12.0
"2010-01-22 01:11:00",1613222,1.119,40.97,2.438,0.075,0.675,100.3055,0.079,1.112,47.08,0,109.6,13.65,0.83,3.0
"2010-01-22 01:11:30",1613223,1.155,37.12,3.214,0.154,0.695,100.3058,0.08,1.107,46.48,0,109.6,13.66,0.83,359.1
"2010-01-22 01:12:00",1613224,1.398,38.59,4.028,0.676,1.563,100.3052,0.079,1.213,45.99,0,109.6,13.63,0.83,0.6
"2010-01-22 01:12:30",1613225,2.926,42.92,5.241,1.09,4.683,100.305,0.078,1.277,45.94,0,109.6,13.63,0.83,4.9
"2010-01-22 01:13:00",1613226,2.682,39.27,7.249,1.155,4.699,100.3047,0.077,1.396,43.6,0,109.5,13.64,0.83,1.3
"2010-01-22 01:13:30",1613227,2.939,35.59,7.117,1.038,4.967,100.305,0.078,1.392,40.59,0,109.6,13.63,0.83,357.6
"2010-01-22 01:14:00",1613228,1.555,32.57,5.201,1.018,1.646,100.3058,0.08,1.2,38.01,0,109.6,13.63,0.83,354.6
"2010-01-22 01:14:30",1613229,1.158,32.78,2.594,0.099,0.175,100.3055,0.079,1.084,36.21,0,109.6,13.66,0.83,354.8
"2010-01-22 01:15:00",1613230,1.367,32.19,4.857,0.649,0.69,100.3052,0.079,1.119,35.39,0,109.6,13.64,0.83,354.2
"2010-01-22 01:15:30",1613231,1.816,32.28,6.15,1.145,1.949,100.3038,0.075,1.164,34.94,0,109.6,13.63,0.83,354.3
"2010-01-22 01:16:00",1613232,2.622,36.42,6.814,1.173,3.772,100.2965,0.056,1.19,34.63,0,109.6,13.64,0.81,358.4
"2010-01-22 01:16:30",1613233,2.897,37.38,5.798,1.071,4.945,100.2919,0.045,1.411,34.6,0,109.6,13.64,0.80,359.4
"2010-01-22 01:17:00",1613234,2.886,36.42,4.905,1.107,4.53,100.2885,0.036,1.375,34.38,0,109.6,13.64,0.79,358.4
"2010-01-22 01:17:30",1613235,1.673,30.53,5.235,1.169,2.058,100.288,0.035,1.129,33.98,0,109.6,13.64,0.79,352.5
"2010-01-22 01:18:00",1613236,0.988,30.97,1.819,0.08,0.116,100.2792,0.012,1.063,33.69,0,109.6,13.67,0.76,353.0
"2010-01-22 01:18:30",1613237,0.966,30.79,2.51,0.123,0.263,100.2752,0.002,1.077,33.58,0,109.6,13.67,0.75,352.8
"2010-01-22 01:19:00",1613238,1.923,34.21,6.376,1.209,2.62,100.2721,-0.006,1.208,33.64,0,109.6,13.64,0.75,356.2
"2010-01-22 01:19:30",1613239,1.647,33.26,6.214,1.125,2.626,100.2718,-0.007,1.206,33.59,0,109.6,13.64,0.75,355.3
"2010-01-22 01:20:00",1613240,2.94,35.73,6.426,1.008,4.926,100.2718,-0.007,1.271,33.61,0,109.6,13.64,0.75,357.7
"2010-01-22 01:20:30",1613241,3.217,34.16,4.862,0.871,4.994,100.2718,-0.007,1.362,33.71,0,109.6,13.64,0.75,356.2
"2010-01-22 01:21:00",1613242,2.021,28.25,6.701,1.132,2.726,100.2718,-0.007,1.148,33.51,0,109.6,13.64,0.75,350.2
"2010-01-22 01:21:30",1613243,1.01,23.13,1.401,0.053,0.392,100.2718,-0.007,1.046,33.41,0,109.6,13.67,0.75,345.1
"2010-01-22 01:22:00",1613244,1.361,28.15,6.128,0.962,1.058,100.2718,-0.007,1.032,33.4,0,109.5,13.64,0.75,350.1
"2010-01-22 01:22:30",1613245,1.569,31.54,6.299,1.126,2.386,100.2718,-0.007,1.16,33.48,0,109.6,13.64,0.75,353.5
"2010-01-22 01:23:00",1613246,1.136,26.61,4.305,0.892,1.199,100.2718,-0.007,1.04,33.33,0,109.6,13.64,0.75,348.6
"2010-01-22 01:23:30",1613247,2.021,29.43,6.171,1.294,3.033,100.2718,-0.007,1.192,33.46,0,109.6,13.63,0.75,351.4
"2010-01-22 01:24:00",1613248,2.68,33.16,6.318,1.194,4.551,100.2718,-0.007,1.259,33.54,0,109.6,13.63,0.75,355.2
"2010-01-22 01:24:30",1613249,1.737,28.26,5.642,1.152,2.629,100.2718,-0.007,1.172,33.47,0,109.5,13.63,0.75,350.3
"2010-01-22 01:25:00",1613250,1.514,24.63,5.426,0.875,1.411,100.271,-0.009,1.179,33.43,0,109.6,13.63,0.74,346.6
"2010-01-22 01:25:30",1613251,1.959,26.54,6.135,1.123,2.154,100.2693,-0.013,1.163,33.44,0,109.6,13.63,0.74,348.5
"2010-01-22 01:26:00",1613252,1.405,23.04,4.124,0.763,1.425,100.2676,-0.017,1.132,33.41,0,109.6,13.63,0.73,345.0
"2010-01-22 01:26:30",1613253,2.907,29.9,6.048,1.148,3.831,100.2653,-0.023,1.119,33.38,0,109.6,13.63,0.73,351.9
"2010-01-22 01:27:00",1613254,2.377,27.31,6.999,1.264,3.518,100.2588,-0.04,1.239,33.5,0,109.5,13.63,0.71,349.3
"2010-01-22 01:27:30",1613255,2.081,27,6.572,1.203,2.959,100.2537,-0.053,1.209,33.46,0,109.5,13.64,0.70,349.0
"2010-01-22 01:28:00",1613256,1.63,23.89,5.217,1.012,1.839,100.2537,-0.053,1.16,33.4,0,109.6,13.64,0.70,345.9
"2010-01-22 01:28:30",1613257,2.203,28.33,6.15,1.262,2.942,100.2486,-0.066,1.111,33.33,0,109.6,13.64,0.69,350.3
"2010-01-22 01:29:00",1613258,2.094,29.26,6.784,1.241,2.593,100.2452,-0.074,1.125,33.35,0,109.6,13.64,0.68,351.3
"2010-01-22 01:29:30",1613259,1.491,29.1,5.93,1.005,2.281,100.2418,-0.083,1.139,33.4,0,109.6,13.64,0.67,351.1
"2010-01-22 01:30:00",1613260,2.342,32.95,6.494,1.237,3.241,100.239,-0.09,1.136,33.4,0,109.5,13.64,0.66,355.0
"2010-01-22 01:30:30",1613261,2.113,33.61,6.642,1.273,3.252,100.2378,-0.093,1.192,33.41,0,109.6,13.64,0.66,355.6
"2010-01-22 01:31:00",1613262,1.458,30.79,5.618,1.134,1.802,100.2378,-0.093,1.029,33.26,0,109.5,13.64,0.66,352.8
"2010-01-22 01:31:30",1613263,0.95,30.89,5.138,0.656,1.5,100.2378,-0.093,1.143,33.33,0,109.5,13.64,0.66,352.9
"2010-01-22 01:32:00",1613264,1.793,35.66,6.018,1.191,2.107,100.2378,-0.093,1.023,33.22,0,109.5,13.64,0.66,357.7
"2010-01-22 01:32:30",1613265,1.7,37.98,7.007,1.185,2.54,100.2378,-0.093,1.201,33.42,0,109.5,13.64,0.66,360.0
"2010-01-22 01:33:00",1613266,1.98,39.37,6.161,1.23,2.561,100.2378,-0.093,1.114,33.3,0,109.5,13.64,0.66,1.4
"2010-01-22 01:33:30",1613267,1.595,37.19,6.56,1.134,1.841,100.2378,-0.093,1.016,33.23,0,109.5,13.64,0.66,359.2
"2010-01-22 01:34:00",1613268,2.207,41.03,6.562,1.209,3.469,100.2373,-0.095,1.219,33.44,0,109.5,13.64,0.66,3.0
"2010-01-22 01:34:30",1613269,1.476,37.22,6.208,1.121,1.635,100.2313,-0.11,1.021,33.28,0,109.5,13.64,0.64,359.2
"2010-01-22 01:35:00",1613270,1.215,36.79,5.567,1.004,1.585,100.2189,-0.142,1.072,33.35,0,109.6,13.64,0.61,358.8
"2010-01-22 01:35:30",1613271,1.567,38.79,6.386,1.158,1.538,100.207,-0.172,0.963,33.28,0,109.6,13.64,0.58,0.8
"2010-01-22 01:36:00",1613272,0.948,35.58,5.208,0.761,1.074,100.2039,-0.18,1.063,33.41,0,109.5,13.64,0.57,357.6
"2010-01-22 01:36:30",1613273,1.848,40.14,7.145,1.274,2.689,100.2039,-0.18,1.054,33.39,0,109.5,13.65,0.57,2.1
"2010-01-22 01:37:00",1613274,1.586,37.03,6.537,1.199,3.472,100.2039,-0.18,1.174,33.51,0,109.5,13.65,0.57,359.0
"2010-01-22 01:37:30",1613275,1.168,32.77,6.655,1.164,1.664,100.2039,-0.18,0.975,33.33,0,109.5,13.65,0.57,354.8
"2010-01-22 01:38:00",1613276,1.185,33.74,6.067,1.102,1.949,100.2039,-0.18,1.084,33.49,0,109.6,13.64,0.57,355.7
"2010-01-22 01:38:30",1613277,1.751,36.01,6.458,1.26,2.578,100.2039,-0.18,1.025,33.45,0,109.5,13.65,0.57,358.0
"2010-01-22 01:39:00",1613278,0.6,29.35,2.069,0.071,0.219,100.2039,-0.18,0.9,33.35,0,109.5,13.68,0.57,351.4
"2010-01-22 01:39:30",1613279,0.576,27.67,2.039,0.069,0.23,100.2039,-0.18,0.897,33.36,0,109.5,13.68,0.57,349.7
"2010-01-22 01:40:00",1613280,1.2,29.77,6.398,1.056,2.045,100.2039,-0.18,1.028,33.47,0,109.5,13.64,0.57,351.8
"2010-01-22 01:40:30",1613281,2.122,33.57,6.808,1.232,3.636,100.2024,-0.183,1.11,33.58,0,109.5,13.64,0.57,355.6
"2010-01-22 01:41:00",1613282,2.185,35.95,5.712,1.2,4.114,100.1954,-0.201,1.066,33.56,0,109.5,13.64,0.55,358.0
"2010-01-22 01:41:30",1613283,1.39,34.16,6.22,1.196,2.444,100.1858,-0.226,1.053,33.58,0,109.5,13.64,0.53,356.2
"2010-01-22 01:42:00",1613284,2.029,38.73,6.346,1.24,2.638,100.1739,-0.256,0.936,33.5,0,109.5,13.64,0.49,0.7
"2010-01-22 01:42:30",1613285,1.683,37.67,7.224,1.237,2.372,100.1702,-0.266,1.035,33.63,0,109.5,13.64,0.49,359.7
"2010-01-22 01:43:00",1613286,0.828,34,1.305,0.065,0.288,100.1699,-0.266,0.851,33.49,0,109.5,13.68,0.48,356.0
"2010-01-22 01:43:30",1613287,0.89,34.71,1.697,0.08,0.379,100.1699,-0.266,0.849,33.5,0,109.5,13.68,0.48,356.7
"2010-01-22 01:44:00",1613288,2.459,40.9,6.496,1.201,3.446,100.1699,-0.266,0.973,33.61,0,109.5,13.65,0.48,2.9
"2010-01-22 01:44:30",1613289,2.957,44.77,4.179,0.77,5.637,100.1699,-0.266,1.133,33.79,0,109.5,13.65,0.48,6.8
"2010-01-22 01:45:00",1613290,2.078,39.87,6.306,1.22,3.028,100.1699,-0.266,0.956,33.62,0,109.5,13.65,0.48,1.9
"2010-01-22 01:45:30",1613291,1.56,38.27,5.894,1.181,1.823,100.1682,-0.271,0.863,33.54,0,109.5,13.65,0.48,0.3
"2010-01-22 01:46:00",1613292,1.932,40.47,6.737,1.225,2.604,100.1603,-0.291,0.977,33.68,0,109.5,13.65,0.46,2.5
"2010-01-22 01:46:30",1613293,0.649,34.86,3.7,0.101,0.341,100.1506,-0.316,0.814,33.56,0,109.5,13.68,0.44,356.9
"2010-01-22 01:47:00",1613294,0.671,37.74,2.291,0.047,0.307,100.1504,-0.316,0.797,33.58,0,109.5,13.68,0.43,359.7
"2010-01-22 01:47:30",1613295,0.725,41.46,2.69,0.442,1.027,100.1472,-0.324,0.839,33.66,0,109.5,13.69,0.43,3.5